Time,TemperatureF,DewpointF,PressureIn,WindDirection,WindDirectionDegrees,WindSpeedMPH,WindSpeedGustMPH,Humidity,HourlyPrecipIn,Conditions,Clouds,dailyrainin,SoftwareType,DateUTC
2013-09-05 00:04:00,62.0,61.0,29.29,North,0,0.0,0.0,97,0.00,,,0.00,,2013-09-05 04:04:00,
2013-09-05 00:13:00,62.0,61.0,29.29,North,0,0.0,0.0,97,0.00,,,0.00,,2013-09-05 04:13:00,
2013-09-05 00:24:00,61.0,60.0,29.29,North,0,0.0,0.0,97,0.00,,,0.00,,2013-09-05 04:24:00,
2013-09-05 00:34:00,61.0,60.0,29.29,North,0,0.0,0.0,97,0.00,,,0.00,,2013-09-05 04:34:00,
2013-09-05 00:44:00,61.0,60.0,29.29,North,0,0.0,0.0,97,0.00,,,0.00,,2013-09-05 04:44:00,
2013-09-05 00:53:00,61.0,60.0,29.29,North,0,0.0,0.0,97,0.00,,,0.00,,2013-09-05 04:53:00,
2013-09-05 01:13:00,60.0,59.0,29.29,North,0,0.0,0.0,97,0.00,,,0.00,,2013-09-05 05:13:00,
2013-09-05 01:23:00,60.0,59.0,29.29,North,0,0.0,0.0,97,0.00,,,0.00,,2013-09-05 05:23:00,
2013-09-05 01:43:00,60.0,59.0,29.29,North,0,0.0,0.0,97,0.00,,,0.00,,2013-09-05 05:43:00,
2013-09-05 01:52:00,60.0,59.0,29.29,North,0,0.0,0.0,97,0.00,,,0.00,,2013-09-05 05:52:00,
2013-09-05 02:13:00,60.0,59.0,29.26,North,0,0.0,0.0,97,0.00,,,0.00,,2013-09-05 06:13:00,
2013-09-05 02:22:00,60.0,59.0,29.26,North,0,0.0,0.0,97,0.00,,,0.00,,2013-09-05 06:22:00,
2013-09-05 02:42:00,60.0,59.0,29.26,North,0,0.0,0.0,97,0.00,,,0.00,,2013-09-05 06:42:00,
2013-09-05 02:52:00,60.0,59.0,29.26,North,0,0.0,0.0,97,0.00,,,0.00,,2013-09-05 06:52:00,
2013-09-05 03:02:00,60.0,59.0,29.26,North,0,0.0,0.0,97,0.00,,,0.00,,2013-09-05 07:02:00,
2013-09-05 03:12:00,60.0,59.0,29.26,North,0,0.0,0.0,97,0.00,,,0.00,,2013-09-05 07:12:00,
2013-09-05 03:23:00,59.0,58.0,29.26,North,0,0.0,0.0,97,0.00,,,0.00,,2013-09-05 07:23:00,
2013-09-05 03:42:00,59.0,58.0,29.26,North,0,0.0,0.0,97,0.00,,,0.00,,2013-09-05 07:42:00,
2013-09-05 03:52:00,59.0,58.0,29.26,North,0,0.0,0.0,97,0.00,,,0.00,,2013-09-05 07:52:00,
2013-09-05 04:12:00,58.0,57.0,29.26,North,0,0.0,0.0,97,0.00,,,0.00,,2013-09-05 08:12:00,
2013-09-05 04:22:00,58.0,57.0,29.26,North,0,0.0,0.0,97,0.00,,,0.00,,2013-09-05 08:22:00,
2013-09-05 04:42:00,58.0,57.0,29.26,North,0,0.0,0.0,97,0.00,,,0.00,,2013-09-05 08:42:00,
2013-09-05 04:52:00,58.0,57.0,29.26,North,0,0.0,0.0,97,0.00,,,0.00,,2013-09-05 08:52:00,
2013-09-05 05:11:00,58.0,57.0,29.26,North,0,0.0,0.0,97,0.00,,,0.00,,2013-09-05 09:11:00,
2013-09-05 05:22:00,58.0,57.0,29.26,North,0,0.0,0.0,97,0.00,,,0.00,,2013-09-05 09:22:00,
2013-09-05 05:43:00,57.0,56.0,29.26,North,0,0.0,0.0,97,0.00,,,0.00,,2013-09-05 09:43:00,
2013-09-05 05:53:00,57.0,56.0,29.26,North,0,0.0,0.0,97,0.00,,,0.00,,2013-09-05 09:53:00,
2013-09-05 06:12:00,57.0,56.0,29.26,North,0,0.0,0.0,97,0.00,,,0.00,,2013-09-05 10:12:00,
2013-09-05 06:23:00,57.0,56.0,29.26,North,0,0.0,0.0,97,0.00,,,0.00,,2013-09-05 10:23:00,
2013-09-05 06:43:00,57.0,56.0,29.29,North,0,0.0,0.0,97,0.00,,,0.00,,2013-09-05 10:43:00,
2013-09-05 06:53:00,57.0,56.0,29.29,North,0,0.0,0.0,97,0.00,,,0.00,,2013-09-05 10:53:00,
2013-09-05 07:12:00,57.0,56.0,29.29,North,0,0.0,0.0,97,0.00,,,0.00,,2013-09-05 11:12:00,
2013-09-05 07:22:00,57.0,56.0,29.29,North,0,0.0,0.0,97,0.00,,,0.00,,2013-09-05 11:22:00,
2013-09-05 07:42:00,57.0,56.0,29.29,North,0,0.0,0.0,97,0.00,,,0.00,,2013-09-05 11:42:00,
2013-09-05 07:52:00,57.0,56.0,29.29,North,0,0.0,0.0,97,0.00,,,0.00,,2013-09-05 11:52:00,
2013-09-05 08:01:00,57.0,56.0,29.29,North,0,0.0,0.0,97,0.00,,,0.00,,2013-09-05 12:01:00,
2013-09-05 08:22:00,59.0,58.0,29.32,North,0,0.0,0.0,97,0.00,,,0.00,,2013-09-05 12:22:00,
2013-09-05 08:32:00,59.0,58.0,29.32,North,0,0.0,0.0,97,0.00,,,0.00,,2013-09-05 12:32:00,
2013-09-05 08:42:00,59.0,58.0,29.32,North,0,0.0,0.0,97,0.00,,,0.00,,2013-09-05 12:42:00,
2013-09-05 08:52:00,62.0,61.0,29.32,North,0,0.0,0.0,97,0.00,,,0.00,,2013-09-05 12:52:00,
2013-09-05 09:12:00,66.0,65.0,29.32,North,0,0.0,0.0,96,0.00,,,0.00,,2013-09-05 13:12:00,
2013-09-05 09:22:00,66.0,65.0,29.32,North,0,0.0,0.0,96,0.00,,,0.00,,2013-09-05 13:22:00,
2013-09-05 10:52:00,73.0,58.0,29.32,North,0,0.0,0.0,60,0.00,,,0.00,,2013-09-05 14:52:00,
2013-09-05 11:02:00,73.0,58.0,29.32,North,0,0.0,0.0,60,0.00,,,0.00,,2013-09-05 15:02:00,
2013-09-05 11:11:00,73.0,58.0,29.32,North,0,0.0,0.0,60,0.00,,,0.00,,2013-09-05 15:11:00,
2013-09-05 11:22:00,76.0,63.0,29.32,North,0,0.0,4.0,64,0.00,,,0.00,,2013-09-05 15:22:00,
2013-09-05 11:44:00,76.0,62.0,29.32,North,0,0.0,4.0,61,0.00,,,0.00,,2013-09-05 15:44:00,
2013-09-05 11:54:00,79.0,62.0,29.32,North,0,0.0,4.0,57,0.00,,,0.00,,2013-09-05 15:54:00,
2013-09-05 12:13:00,78.0,62.0,29.32,North,0,0.0,7.0,59,0.00,,,0.00,,2013-09-05 16:13:00,
2013-09-05 12:24:00,78.0,62.0,29.32,West,272,3.0,6.0,58,0.00,,,0.00,,2013-09-05 16:24:00,
2013-09-05 12:33:00,78.0,62.0,29.32,West,272,3.0,6.0,58,0.00,,,0.00,,2013-09-05 16:33:00,
2013-09-05 12:43:00,78.0,62.0,29.32,West,272,3.0,6.0,58,0.00,,,0.00,,2013-09-05 16:43:00,
2013-09-05 12:54:00,78.0,62.0,29.32,West,272,3.0,6.0,58,0.00,,,0.00,,2013-09-05 16:54:00,
2013-09-05 13:23:00,82.0,59.0,29.32,South,188,3.0,4.0,45,0.00,,,0.00,,2013-09-05 17:23:00,
2013-09-05 13:34:00,82.0,59.0,29.32,South,188,3.0,4.0,45,0.00,,,0.00,,2013-09-05 17:34:00,
2013-09-05 13:43:00,82.0,59.0,29.32,South,188,3.0,4.0,45,0.00,,,0.00,,2013-09-05 17:43:00,
2013-09-05 13:52:00,84.0,62.0,29.29,North,0,0.0,5.0,47,0.00,,,0.00,,2013-09-05 17:52:00,
2013-09-05 14:12:00,85.0,60.0,29.29,ESE,109,3.0,6.0,43,0.00,,,0.00,,2013-09-05 18:12:00,
2013-09-05 14:22:00,84.0,60.0,29.32,ENE,60,3.0,4.0,45,0.00,,,0.00,,2013-09-05 18:22:00,
2013-09-05 14:52:00,82.0,57.0,29.29,West,261,4.0,7.0,43,0.00,,,0.00,,2013-09-05 18:52:00,
2013-09-05 15:11:00,82.0,58.0,29.29,North,0,0.0,4.0,44,0.00,,,0.00,,2013-09-05 19:11:00,
2013-09-05 15:22:00,82.0,58.0,29.29,North,0,0.0,4.0,44,0.00,,,0.00,,2013-09-05 19:22:00,
2013-09-05 15:42:00,82.0,59.0,29.29,North,0,0.0,3.0,45,0.00,,,0.00,,2013-09-05 19:42:00,
2013-09-05 15:52:00,82.0,58.0,29.29,West,276,4.0,9.0,44,0.00,,,0.00,,2013-09-05 19:52:00,
2013-09-05 16:11:00,82.0,60.0,29.29,SSE,159,3.0,4.0,47,0.00,,,0.00,,2013-09-05 20:11:00,
2013-09-05 16:22:00,82.0,59.0,29.26,North,0,0.0,4.0,46,0.00,,,0.00,,2013-09-05 20:22:00,
2013-09-05 16:52:00,81.0,59.0,29.26,North,0,0.0,0.0,47,0.00,,,0.00,,2013-09-05 20:52:00,
2013-09-05 17:02:00,81.0,59.0,29.26,North,0,0.0,0.0,47,0.00,,,0.00,,2013-09-05 21:02:00,
2013-09-05 17:12:00,81.0,59.0,29.26,North,0,0.0,0.0,47,0.00,,,0.00,,2013-09-05 21:12:00,
2013-09-05 17:22:00,81.0,59.0,29.26,North,0,0.0,0.0,47,0.00,,,0.00,,2013-09-05 21:22:00,
2013-09-05 18:13:00,80.0,59.0,29.26,West,267,3.0,7.0,49,0.00,,,0.00,,2013-09-05 22:13:00,
2013-09-05 18:24:00,79.0,57.0,29.26,North,0,0.0,6.0,47,0.00,,,0.00,,2013-09-05 22:24:00,
2013-09-05 18:53:00,79.0,56.0,29.26,North,0,0.0,5.0,46,0.00,,,0.00,,2013-09-05 22:53:00,
2013-09-05 19:12:00,78.0,59.0,29.26,North,0,0.0,0.0,53,0.00,,,0.00,,2013-09-05 23:12:00,
2013-09-05 19:22:00,77.0,55.0,29.26,North,0,0.0,6.0,47,0.00,,,0.00,,2013-09-05 23:22:00,
2013-09-05 19:42:00,76.0,60.0,29.26,North,0,0.0,4.0,58,0.00,,,0.00,,2013-09-05 23:42:00,
2013-09-05 19:53:00,74.0,61.0,29.26,North,0,0.0,0.0,63,0.00,,,0.00,,2013-09-05 23:53:00,
2013-09-05 20:12:00,72.0,61.0,29.26,North,0,0.0,0.0,69,0.00,,,0.00,,2013-09-06 00:12:00,
2013-09-05 20:22:00,70.0,61.0,29.26,North,0,0.0,0.0,74,0.00,,,0.00,,2013-09-06 00:22:00,
2013-09-05 20:42:00,68.0,60.0,29.26,North,0,0.0,0.0,75,0.00,,,0.00,,2013-09-06 00:42:00,
2013-09-05 20:52:00,67.0,59.0,29.26,North,0,0.0,0.0,76,0.00,,,0.00,,2013-09-06 00:52:00,
2013-09-05 21:11:00,66.0,60.0,29.26,North,0,0.0,0.0,80,0.00,,,0.00,,2013-09-06 01:11:00,
2013-09-05 21:22:00,66.0,60.0,29.26,North,0,0.0,0.0,80,0.00,,,0.00,,2013-09-06 01:22:00,
2013-09-05 21:42:00,64.0,60.0,29.29,North,0,0.0,0.0,87,0.00,,,0.00,,2013-09-06 01:42:00,
2013-09-05 21:52:00,63.0,60.0,29.29,North,0,0.0,0.0,90,0.00,,,0.00,,2013-09-06 01:52:00,
2013-09-05 22:12:00,63.0,60.0,29.29,North,0,0.0,0.0,91,0.00,,,0.00,,2013-09-06 02:12:00,
2013-09-05 22:22:00,62.0,60.0,29.29,North,0,0.0,0.0,92,0.00,,,0.00,,2013-09-06 02:22:00,
2013-09-05 22:42:00,62.0,60.0,29.29,North,0,0.0,0.0,93,0.00,,,0.00,,2013-09-06 02:42:00,
2013-09-05 22:52:00,61.0,59.0,29.29,North,0,0.0,0.0,94,0.00,,,0.00,,2013-09-06 02:52:00,
2013-09-05 23:02:00,61.0,59.0,29.29,North,0,0.0,0.0,94,0.00,,,0.00,,2013-09-06 03:02:00,
2013-09-05 23:11:00,61.0,59.0,29.29,North,0,0.0,0.0,94,0.00,,,0.00,,2013-09-06 03:11:00,
2013-09-05 23:22:00,60.0,59.0,29.29,North,0,0.0,0.0,95,0.00,,,0.00,,2013-09-06 03:22:00,
2013-09-05 23:55:00,60.0,59.0,29.32,North,0,0.0,0.0,97,0.00,,,0.00,,2013-09-06 03:55:00,